Regional Weather Roundup
Issued by NWS

Home | Current Version | Previous Version | Text Only | Print | Product List | Glossary Off
Versions: 1 2 3 4 5 6 7 8 9 10 11 12 13 14 15 16 17 18 19 20 21 22 23 24 25 26 27 28 29 30 31 32 33 34 35 36 37 38 39 40 41 42 43 44 45 46 47 48 49 50

000
ASUS43 KOAX 260610
RWRNE

WEATHER ROUNDUP FOR NEBRASKA
NATIONAL WEATHER SERVICE OMAHA NE
1200 AM CST SUN FEB 26 2017

NOTES: SATELLITE DATA IS BEING USED TO AUGMENT CLOUD COVER ABOVE
       12000 FEET.
       "FAIR" INDICATES FEW OR NO CLOUDS BELOW 12,000 FEET WITH NO
       SIGNIFICANT WEATHER AND/OR OBSTRUCTIONS TO VISIBILITY.

  * THESE STATIONS DO NOT REPORT WEATHER SUCH AS RAIN...SNOW OR FOG.

NEZ001>004-019>022-054>056-260700-
NEBRASKA PANHANDLE

CITY           SKY/WX    TMP DP  RH WIND       PRES   REMARKS
SCOTTSBLUFF    CLEAR     13   5  70 NW6       29.80R WCI   4
6HR MIN TEMP:  12; 6HR MAX TEMP:  28;

ALLIANCE       CLEAR      5  -1  76 W12       29.76S WCI -11
6HR MIN TEMP:   5; 6HR MAX TEMP:  20;

CHADRON        CLEAR     13   3  64 SW9       29.78R WCI   1
6HR MIN TEMP:   9; 6HR MAX TEMP:  21;

KIMBALL        CLEAR     16   7  69 W13       29.80S WCI   2
SIDNEY         CLEAR     20   6  55 W15       29.81S WCI   6
6HR MIN TEMP:  18; 6HR MAX TEMP:  26;

$$

NEZ057>060-069>072-079>082-260700-
SOUTHWEST NEBRASKA

CITY           SKY/WX    TMP DP  RH WIND       PRES   REMARKS
NORTH PLATTE   CLEAR     18  12  77 W6        29.84F WCI  10
6HR MIN TEMP:  18; 6HR MAX TEMP:  33;

IMPERIAL       CLOUDY    27  15  61 SW8       29.85S WCI  19
6HR MIN TEMP:  27; 6HR MAX TEMP:  32;

LEXINGTON      PTCLDY    27  17  68 W3        29.85F
MCCOOK         CLOUDY    23  16  74 SW8       29.87F WCI  14
6HR MIN TEMP:  23; 6HR MAX TEMP:  36;

OGALLALA       CLEAR     15  11  84 W8        29.84S WCI   4
$$

NEZ005>010-023>029-035>040-094-260700-
NORTH CENTRAL NEBRASKA

CITY           SKY/WX    TMP DP  RH WIND       PRES   REMARKS
VALENTINE      CLEAR      8   3  80 SW5       29.75F WCI   0
6HR MIN TEMP:   8; 6HR MAX TEMP:  26;

AINSWORTH      CLEAR     15   9  80 SW9       29.76F WCI   3
BROKEN BOW     CLEAR     18  14  84 W3        29.82S
6HR MIN TEMP:  16; 6HR MAX TEMP:  31;

O`NEILL        CLOUDY    24  18  77 SW10      29.80S WCI  13
ORD            CLEAR     23  16  74 SW10      29.82S WCI  12
6HR MIN TEMP:  20; 6HR MAX TEMP:  30;

THEDFORD       CLEAR     19  11  69 SW9       29.79F WCI   9
$$

NEZ041-046>049-061>064-073>077-083>087-260700-
SOUTH CENTRAL NEBRASKA

CITY           SKY/WX    TMP DP  RH WIND       PRES   REMARKS
GRAND ISLAND   CLOUDY    31  22  69 SW10      29.86F WCI  22
6HR MIN TEMP:  26; 6HR MAX TEMP:  35;

AURORA         CLOUDY    28  24  84 SW6       29.86F WCI  21
HASTINGS       CLOUDY    28  21  75 SW5       29.89S WCI  23
6HR MIN TEMP:  25; 6HR MAX TEMP:  38;

HEBRON         MOCLDY    32  22  65 SW7       29.92R WCI  26
HOLDREGE       CLOUDY    31  15  52 W8        29.87F WCI  24
KEARNEY *      CLOUDY    32  14  47 W5        29.87F WCI  27
YORK           CLOUDY    28  25  86 W8        29.88S WCI  20
$$

NEZ011>018-030>034-042>045-260700-
NORTHEAST NEBRASKA

CITY           SKY/WX    TMP DP  RH WIND       PRES   REMARKS
NORFOLK        CLOUDY    25  18  74 SW9       29.81F WCI  15
6HR MIN TEMP:  21; 6HR MAX TEMP:  28;

ALBION         PTCLDY    25  17  73 SW6       29.82F WCI  18
BLAIR          PTCLDY    31  23  72 S10       29.85F WCI  22
FREMONT        CLOUDY    30  25  81 SW8       29.87S WCI  23
TEKAMAH        CLOUDY    20  16  84 SE6       29.86F WCI  12
6HR MIN TEMP:  19; 6HR MAX TEMP:  28;

WAYNE          CLOUDY    20  18  91 SW7       29.82S WCI  11
$$

NEZ050>053-065>068-078-088>093-260700-
SOUTHEAST NEBRASKA

CITY           SKY/WX    TMP DP  RH WIND       PRES   REMARKS
LINCOLN        PTCLDY    32  28  85 SW8       29.90F WCI  25
6HR MIN TEMP:  29; 6HR MAX TEMP:  35;

OMAHA EPPLEY   MOCLDY    31  21  66 S7        29.89F WCI  24
6HR MIN TEMP:  29; 6HR MAX TEMP:  34;

BEATRICE       PTCLDY    32  20  61 SW7       29.91S WCI  26
FALLS CITY     CLOUDY    34  18  52 S9        29.94F WCI  27
6HR MIN TEMP:  31; 6HR MAX TEMP:  38;

NEBRASKA CITY  PTCLDY    32  18  56 SW13      29.90F WCI  23
PLATTSMOUTH    PTCLDY    33  18  52 S15G21    29.89S WCI  23
$$

NEZ044-045-051>053-067-260700-
OMAHA AREA

CITY           SKY/WX    TMP DP  RH WIND       PRES   REMARKS
OMAHA EPPLEY   MOCLDY    31  21  66 S7        29.89F WCI  24
6HR MIN TEMP:  29; 6HR MAX TEMP:  34;

BLAIR          PTCLDY    31  23  72 S10       29.85F WCI  22
FREMONT        CLOUDY    30  25  81 SW8       29.87S WCI  23
MILLARD        CLOUDY    34  24  66 S5        29.89S WCI  30
OFFUTT AFB     PTCLDY    33  21  61 SW8       29.88F WCI  26
PLATTSMOUTH    PTCLDY    33  18  52 S15G21    29.89S WCI  23
WAHOO          FAIR      30  25  82 SW7       29.87F WCI  23
$$




USA.gov is the U.S. government's official web portal to all federal, state and local government web resources and services.